This is the latest recevied weather packets stored in our database for station/object KC3VCX. If no packets are shown the sender has not sent any weather packets the latest 10 day(s).
| Time | Temp. | Humidity | Pressure | Rain* | Wind** | Luminosity | Snow |
|---|---|---|---|---|---|---|---|
| 1777764020 | 5° C | 69% | 1017.3 hPa | 0 mm | - | 33 W/m² | - |
| 1777763717 | 5° C | 69% | 1017.3 hPa | 0 mm | - | 37 W/m² | - |
| 1777763415 | 5° C | 69% | 1017.4 hPa | 0 mm | - | 37 W/m² | - |
| 1777763113 | 5° C | 69% | 1017.3 hPa | 0 mm | - | 38 W/m² | - |
| 1777762811 | 5.56° C | 69% | 1017.4 hPa | 0 mm | - | 40 W/m² | - |
| 1777762506 | 5.56° C | 67% | 1017.3 hPa | 0 mm | - | 44 W/m² | - |
| 1777762204 | 5.56° C | 68% | 1017.4 hPa | 0 mm | - | 25 W/m² | - |
| 1777761900 | 5.56° C | 68% | 1017.3 hPa | 0 mm | - | 23 W/m² | - |
| 1777761596 | 5.56° C | 68% | 1017.4 hPa | 0 mm | - | 36 W/m² | - |
| 1777761294 | 5.56° C | 68% | 1017.4 hPa | 0 mm | - | 54 W/m² | - |
| 1777760992 | 5.56° C | 67% | 1017.3 hPa | 0 mm | - | 80 W/m² | - |
| 1777760690 | 5.56° C | 67% | 1017.4 hPa | 0 mm | - | 78 W/m² | - |
| 1777760385 | 5.56° C | 68% | 1017.3 hPa | 0 mm | - | 74 W/m² | - |
| 1777760081 | 5.56° C | 69% | 1017.2 hPa | 0 mm | - | 73 W/m² | - |
| 1777759779 | 5.56° C | 68% | 1017.4 hPa | 0 mm | - | 87 W/m² | - |
| 1777759474 | 5.56° C | 68% | 1017.3 hPa | 0 mm | - | 104 W/m² | - |
| 1777759171 | 5.56° C | 67% | 1017.2 hPa | 0 mm | - | 104 W/m² | - |
| 1777758869 | 6.11° C | 69% | 1017 hPa | 0 mm | - | 108 W/m² | - |
| 1777758566 | 5.56° C | 68% | 1017.1 hPa | 0 mm | - | 99 W/m² | - |
| 1777758262 | 6.11° C | 70% | 1017.1 hPa | 0 mm | - | 150 W/m² | - |
| 1777757960 | 5.56° C | 69% | 1016.9 hPa | 0 mm | - | 164 W/m² | - |
| 1777757656 | 6.11° C | 70% | 1017.1 hPa | 0 mm | - | 185 W/m² | - |
| 1777757355 | 5.56° C | 71% | 1017.1 hPa | 0 mm | - | 205 W/m² | - |
| 1777757053 | 5.56° C | 72% | 1017 hPa | 0 mm | - | 190 W/m² | - |
| 1777756750 | 5° C | 72% | 1016.9 hPa | 0 mm | - | 143 W/m² | - |
* Rain latest hour (hover to see other rain measurements)
** Current wind speed in m/s (hover to see current wind gust speed)